Regional Weather Roundup
Issued by NWS Grand Forks, ND

Home | Current Version | Previous Version | Graphics & Text | Print | Product List | Glossary On
Versions: 1 2 3 4 5 6 7 8 9 10 11 12 13 14 15 16 17 18 19 20 21 22 23 24 25 26 27 28 29 30 31 32 33 34 35 36 37 38 39 40 41 42 43 44 45 46 47 48 49 50
000
ASUS43 KFGF 011731
RWRFGF
PRAIRIE TO PINES  WEATHER ROUNDUP
NATIONAL WEATHER SERVICE EASTERN NORTH DAKOTA/GRAND FORKS ND
1200 PM CDT MON SEP 01 2014

 **SATELLITE DATA USED TO AUGMENT SKY COVER AT AUTOMATED STATIONS**
 *****  WEATHER ACROSS EASTERN NORTH DAKOTA  *****

CITY           SKY/WX    TMP DP  RH WIND       PRES   REMARKS
GRAND FORKS    MOSUNNY   72  55  55 N5        29.71R
GRAND FRKS AFB SUNNY     73  58  60 VRB7      29.72R
GRAND FRKS NWS   N/A     70 N/A N/A W5          N/A
DEVILS LAKE    PTSUNNY   64  54  68 NW17      29.74R
FARGO          SUNNY     72  57  59 NW6       29.74R
WAHPETON ARPT  SUNNY     70  55  60 W6        29.77S
$$

 ***** WEATHER ACROSS CENTRAL AND WESTERN NORTH DAKOTA  *****

CITY           SKY/WX    TMP DP  RH WIND       PRES   REMARKS
BISMARCK       SUNNY     69  53  56 NW13      29.82R
MINOT          SUNNY     66  51  58 W10       29.79S
JAMESTOWN      SUNNY     68  55  63 W10G20    29.77R
MINOT AFB      SUNNY     66  52  61 NW8       29.78S
GARRISON         N/A     66  56  70 NW10      29.82R
WILLISTON      SUNNY     68  47  46 N9        29.85S
DICKINSON      MOSUNNY   66  48  52 NW10      29.86S
HETTINGER      MOSUNNY   67  49  52 NW15      29.89R
$$

 *****  OTHER AIRPORT OBSERVATIONS IN OUR AREA  *****

CITY           SKY/WX    TMP DP  RH WIND       PRES   REMARKS
WALHALLA       FAIR      72  50  46 NW13      29.69S
GRAFTON AIRPOR FAIR      72  55  56 W5        29.70S
VALLEY CITY AR FAIR      72  54  53 W14       29.76R
CANDO          FAIR      64  50  59 NW18G26   29.76S
CAVALIER APRT  FAIR      72  54  53 NW8       29.69S
GWINNER        SUNNY     73  57  56 W9        29.78R
SHEYENNE NWR     N/A     73  57  56 NW7       29.95
ROLLA          PTSUNNY   63  50  63 NW10      29.77R
 ***** THE ABOVE OBSERVATIONS ARE NON NWS ARE NOT QUALITY
       CONTROLLED AND MAY MIS-REPORT RAIN FOR SNOW...
$$

  *****  WEATHER ACROSS NORTHERN MINNESOTA  *****

CITY           SKY/WX    TMP DP  RH WIND       PRES   REMARKS
FLAG ISLAND    MOSUNNY   63  54  72 NW10      29.65S
WARROAD        MOSUNNY   68  57  68 W9        29.68S
ROSEAU         SUNNY     70  57  64 NW9       29.68S
HALLOCK        SUNNY     70  54  56 CALM      29.69R
THF RVR FALLS  SUNNY     66  55  68 W7        29.72S
BAUDETTE       PTSUNNY   64  54  69 NW16G22   29.66R
WASKISH        PTSUNNY   66  55  68 W7        29.69R
CROOKSTON      SUNNY     70  57  64 SW5       29.72S
$$
  *****  WEATHER ACROSS CENTRAL AND WEST MINNESOTA  *****

CITY           SKY/WX    TMP DP  RH WIND       PRES   REMARKS
FOSSTON        SUNNY     68  54  60 W7        29.74R
BEMIDJI        MOSUNNY   66  52  61 NW15      29.73R
PARK RAPIDS    SUNNY     68  50  52 NW18      29.73R
ELBOW LAKE     FAIR      70  58  66 W6        29.77S
WADENA         SUNNY     70  55  60 NW10      29.75R
DETROIT LAKES  SUNNY     64  55  72 NW6       29.77S
MOORHEAD       SUNNY     72  61  68 W7        29.75S
FERGUS FALLS   MOSUNNY   70  55  60 W7        29.77R
MORRIS MN      SUNNY     72  59  64 NW9       29.77S
STAPLES        SUNNY     70  52  52 NW16      29.74R
$$
  *****  WEATHER ELSEWHERE ACROSS MINNESOTA  *****

CITY           SKY/WX    TMP DP  RH WIND       PRES   REMARKS
DULUTH         CLOUDY    64  56  75 NW14G22   29.66R
INTRNTL FALLS  CLOUDY    64  62  93 W8        29.64S
ELY            RAIN      61  57  88 NW7G17    29.63R
CLOQUET        CLOUDY    64  55  72 W12       29.68S
WHEATON        SUNNY     70  57  64 W8        29.79S
BRAINERD       MOSUNNY   65  54  67 NW6G16    29.72S
HIBBING        CLOUDY    66  56  70 NW8       29.66R
ALEXANDRIA     SUNNY     70  55  59 NW14G21   29.78R
SAINT CLOUD    MOSUNNY   74  56  53 NW13G23   29.72R
MINNEAPOLIS    PTSUNNY   73  62  68 W8        29.73R
$$

  *****  WEATHER ACROSS SOUTH DAKOTA  *****

CITY           SKY/WX    TMP DP  RH WIND       PRES   REMARKS
SIOUX FALLS    MOSUNNY   73  61  65 W8        29.85R
BROOKINGS      NOT AVBL
WATERTOWN      SUNNY     71  57  61 W8        29.81R
HURON          SUNNY     72  55  55 NW5       29.84R
SISSETON         N/A     74  54  49 N6        29.77R
ABERDEEN       SUNNY     70  57  63 SW6       29.79S
MITCHELL       SUNNY     72  61  68 W8        29.86R
PIERRE         SUNNY     72  56  57 W13       29.84F
MOBRIDGE       SUNNY     70  54  56 NW9       29.80S
RAPID CITY     MOSUNNY   70  47  43 N12       29.94S
$$

  *****  SOME WEATHER IN NEARBY STATES *****

CITY           SKY/WX    TMP DP  RH WIND       PRES   REMARKS
GLASGOW MT     MOSUNNY   63  50  62 SW6       29.88S
GREAT FALLS MT CLOUDY    63  37  38 SW14G20   29.97S
CHEYENNE WY    SUNNY     64  41  42 SW6G17    30.10S
SCOTTSBLUFF NE MOSUNNY   69  51  52 VRB6      30.01F
OMAHA NE       MOSUNNY   75  61  61 W6        29.88R
DES MOINES IA  PTSUNNY   78  65  63 W15       29.79S
DAVENPORT IA   SUNNY     78  66  66 SW13G29   29.79S
CHICAGO IL     CLOUDY    76  67  73 W13       29.77F
EAU CLAIRE WI  PTSUNNY   72  62  71 W14G22    29.68R
LA CROSSE WI   PTSUNNY   76  65  68 W8        29.70R
$$

  *****  SOME NATIONAL WEATHER *****

CITY           SKY/WX    TMP DP  RH WIND       PRES   REMARKS
LA GUARDIA NY  PTSUNNY   85  68  56 VRB5      29.97F
RALEIGH NC     PTSUNNY   90  72  55 SW8       30.09F HX  97
ATLANTA GA     PTSUNNY   87  71  58 NW8       30.14F HX  93
NEW ORLEANS LA PTSUNNY   89  76  65 SE15      30.05F HX 100
OKLAHOMA CITY  MOSUNNY   89  70  53 S20G28    29.86F HX  94
ALBUQUERQUE NM MOSUNNY   80  40  23 SW7       30.14F
SALT LAKE CITY MOSUNNY   71  37  28 NW8       30.09R
LOS ANGELES CA MOSUNNY   75  64  68 CALM      29.84R
BOISE ID       SUNNY     62  42  47 NW6       30.11S
SEATTLE WA     CLOUDY    63  55  77 SW6       30.11S
$$

*** WEATHER ACROSS MANITOBA...SASKATCHEWAN AND ONTARIO ***
                ***ONTARIO***

CITY           SKY/WX    TMP DP  RH WIND       PRES   REMARKS
GERALDTON      LGT RAIN  63  63 100 SW12      29.47F
THUNDER BAY    LGT RAIN  68  61  77 W6        29.52R
SIOUX LOOKOUT  CLOUDY    63  55  77 NW13      29.56R
TORONTO        PTSUNNY   79  70  73 S12G18    29.89F
BIG TROUT LK   CLOUDY    57  54  88 N6        29.44F
PICKLE LAKE    LGT RAIN  57  55  94 NW9G18    29.47R
DRYDEN         PTSUNNY   61  57  88 W10       29.59S
KENORA         PTSUNNY   64  54  68 NW12      29.64R
$$
                *** MANITOBA***

CITY           SKY/WX    TMP DP  RH WIND       PRES   REMARKS
BRANDON        PTSUNNY   66  52  59 W6        29.73R
DAUPHIN        SUNNY     70  52  52 W14       29.66S
ISLAND LAKE    MOSUNNY   63  57  82 CALM      29.54S
PILOT MOUND      N/A     68  50  52 W9G18       N/A
THE PAS        MOSUNNY   63  46  55 NW13      29.61F
THOMPSON       MOSUNNY   64  48  55 NW10      29.54S
WINNIPEG       MOSUNNY   70  57  64 W8        29.66S
CHURCHILL      CLOUDY    52  52 100 SW2       29.50S
GILLAM         MOSUNNY   59  57  94 NW6       29.51F
$$
                ***SASKATCHEWAN***

CITY           SKY/WX    TMP DP  RH WIND       PRES   REMARKS
ESTEVAN        MOSUNNY   66  50  55 W12       29.81S
KINDERSLEY     MOSUNNY   63  41  45 W5        29.82S
LLOYDMINSTER   MOSUNNY   63  43  48 W12       29.76S
PRINCE ALBERT  MOSUNNY   61  50  67 NW9       29.72F
REGINA         MOSUNNY   64  48  55 W13       29.79F
YORKTON        SUNNY     64  45  48 W15G23    29.72R
N. BATTLEFORD  SUNNY     61  46  59 W5        29.79F
LA RONGE       MOSUNNY   63  50  63 W10       29.65F
SASKATOON      SUNNY     63  46  55 W13       29.79S
SWIFT CURRENT  SUNNY     61  41  48 NW13G18   29.84F
$$
NOTE: THESE ARE AUTOMATED STATIONS WITH LIMITED QUALITY CONTROL
      "FAIR" INDICATES FEW OR NO CLOUDS BELOW 12,000 FEET WITH NO
      SIGNIFICANT WEATHER AND/OR OBSTRUCTIONS TO VISIBILITY.
      SKY/WX - SKY CONDITION AND SIGNIFICANT WEATHER.
      TMP - AIR TEMPERATURE.    DP   - DEWPOINT TEMPERATURE.
      RH  - RELATIVE HUMIDITY.  PRES - PRESSURE.
      HX  - HEAT INDEX.         WCI  - WIND CHILL INDEX.
$



USA.gov is the U.S. government's official web portal to all federal, state and local government web resources and services.